Location: Luxembourg
(49.6117°N, 6.1300°E)
Time: 21:41:51
(UTC+02:00)

N. Korean satellite - Visible Passes

Search period start: 07 October 2022 00:00
Search period end: 17 October 2022 00:00
Orbit: 425 x 467 km, 97.3° (Epoch: 06 October)

Date Brightness Start Highest point End Pass type
(mag) Time Alt. Az. Time Alt. Az. Time Alt. Az.
07 Oct 8.8 06:20:57 10° NE 06:23:44 25° E 06:26:31 10° SSE visible
08 Oct 10.2 05:47:08 10° E 05:47:19 10° E 05:47:29 10° E visible
09 Oct 7.6 06:40:59 10° NNE 06:44:08 45° E 06:47:18 10° S visible
10 Oct 9.5 06:05:27 10° NE 06:07:41 17° E 06:09:55 10° SE visible
11 Oct 6.4 07:00:56 10° NNE 07:04:13 85° ESE 07:07:31 10° SSW visible
12 Oct 8.6 06:24:50 10° NE 06:27:44 28° E 06:30:37 10° SSE visible
13 Oct 9.9 05:49:57 10° ENE 05:51:00 11° E 05:52:03 10° ESE visible
13 Oct 6.5 07:20:46 10° N 07:23:59 52° WNW 07:27:11 10° SSW visible
14 Oct 7.3 06:44:15 10° NNE 06:47:27 50° E 06:50:40 10° S visible
15 Oct 9.4 06:08:18 10° NE 06:10:41 18° E 06:13:04 10° SE visible
16 Oct 6.3 07:03:34 10° NNE 07:06:52 89° NW 07:10:10 10° SSW visible
